EW8320 Weather Reports


Display with metric or nautical units.
time (UTC)temp
F
wind
direction
speed
MPH
gust
MPH
rain 1hr
in
rain 24hr
in
rain mn
in
humidity
%
barometer
mb
20260901180510 58 67 0.0 0.0 0.00 0.00 0.00 37 1014.8
20260901175510 59 135 0.0 2.0 0.00 0.00 0.00 35 1014.6
20260901174511 59 112 2.0 3.0 0.00 0.00 0.00 35 1014.4
20260901173510 57 212 0.0 1.0 0.00 0.00 0.00 36 1014.4
20260901172511 56 121 2.0 4.0 0.00 0.00 0.00 33 1014.1
20260901171611 56 135 0.0 0.0 0.00 0.00 0.00 34 1014.4
20260901171524 56 135 0.0 0.0 0.00 0.00 0.00 33 1014.3
20260901170511 52 221 1.0 3.0 0.00 0.00 0.00 33 1014.5
20260901165514 44 285 1.0 4.0 0.00 0.00 0.00 33 1014.6
20260901164511 54 202 0.0 2.0 0.00 0.00 0.00 31 1014.5
20260901163510 55 234 1.0 2.0 0.00 0.00 0.00 35 1014.6
20260901161512 55 113 2.0 3.0 0.00 0.00 0.00 10 1014.6
20260901160510 56 87 5.0 7.0 0.00 0.00 0.00 35 1014.4
20260901155609 54 45 4.0 7.0 0.00 0.00 0.00 43 1014.3
20260901153710 51 109 3.0 4.0 0.00 0.00 0.00 36 1014.0
20260901152712 49 112 0.0 0.0 0.00 0.00 0.00 59 1013.9
20260901151711 49 202 0.0 0.0 0.00 0.00 0.00 64 1013.6
20260901150810 48 183 1.0 2.0 0.00 0.00 0.00 55 1013.7
20260901145818 48 90 0.0 0.0 0.00 0.00 0.00 53 1013.7
20260901144913 48 90 0.0 0.0 0.00 0.00 0.00 54 1013.6
20260901143913 47 292 0.0 0.0 0.00 0.00 0.00 56 1013.5
20260901142010 47 247 0.0 0.0 0.00 0.00 0.00 55 1013.5
20260901140031 48 36 1.0 2.0 0.00 0.00 0.00 44 1013.6
20260901135111 48 213 0.0 0.0 0.00 0.00 0.00 35 1013.4
20260901134113 48 280 1.0 3.0 0.00 0.00 0.00 100 1013.5
20260901134011 49 256 1.0 3.0 0.00 0.00 0.00 100 1013.5
20260901133012 49 268 0.0 3.0 0.00 0.00 0.00 21 1013.4
20260901132030 49 271 3.0 6.0 0.00 0.00 0.00 40 1013.3
20260901130211 49 269 1.0 3.0 0.00 0.00 0.00 44 1013.4
20260901125214 49 275 3.0 4.0 0.00 0.00 0.00 35 1013.6
20260901124113 49 250 2.0 6.0 0.00 0.00 0.00 42 1013.6
20260901123112 49 250 1.0 2.0 0.00 0.00 0.00 36 1013.6
20260901122113 49 263 3.0 5.0 0.00 0.00 0.00 45 1013.7
20260901121211 49 261 4.0 7.0 0.00 0.00 0.00 27 1013.8
20260901120211 50 271 4.0 7.0 0.00 0.00 0.00 25 1013.8
20260901114311 48 266 3.0 5.0 0.00 0.00 0.00 49 1014.0
20260901113311 47 256 2.0 4.0 0.00 0.00 0.00 28 1014.0
20260901112311 45 226 2.0 4.0 0.00 0.00 0.00 32 1013.9
20260901111312 43 255 0.0 3.0 0.00 0.00 0.00 51 1013.9
20260901110410 43 270 0.0 0.0 0.00 0.00 0.00 58 1014.1
20260901105413 42 270 0.0 0.0 0.00 0.00 0.00 57 1014.2
20260901104510 43 226 1.0 3.0 0.00 0.00 0.00 55 1014.3
20260901102512 44 202 0.0 2.0 0.00 0.00 0.00 50 1014.4
20260901101610 44 258 1.0 3.0 0.00 0.00 0.00 53 1014.4
20260901100614 43 282 2.0 5.0 0.00 0.00 0.00 57 1014.6
20260901095709 41 208 1.0 2.0 0.00 0.00 0.00 61 1014.7
20260901094711 40 247 0.0 0.0 0.00 0.00 0.00 63 1014.4
20260901092711 40 337 0.0 0.0 0.00 0.00 0.00 63 1014.2
20260901092609 40 337 0.0 0.0 0.00 0.00 0.00 64 1014.3
20260901091611 46 337 0.0 0.0 0.00 0.00 0.00 63 1014.4
20260901090611 47 209 0.0 2.0 0.00 0.00 0.00 62 1014.4
20260901084709 49 208 0.0 1.0 0.00 0.00 0.00 58 1014.5
20260901083710 49 223 0.0 3.0 0.00 0.00 0.00 58 1014.6
20260901082710 49 270 0.0 2.0 0.00 0.00 0.00 57 1014.6
20260901081711 49 222 0.0 2.0 0.00 0.00 0.00 58 1014.5
20260901080710 47 247 0.0 1.0 0.00 0.00 0.00 57 1014.6
20260901075710 51 247 0.0 0.0 0.00 0.00 0.00 53 1014.6
20260901074711 52 202 2.0 3.0 0.00 0.00 0.00 49 1014.6
20260901074611 52 236 1.0 4.0 0.00 0.00 0.00 49 1014.7
20260901073610 52 230 1.0 4.0 0.00 0.00 0.00 51 1014.8
20260901072710 52 210 2.0 5.0 0.00 0.00 0.00 51 1014.7
20260901071712 51 180 1.0 3.0 0.00 0.00 0.00 51 1014.8
20260901070727 50 315 0.0 0.0 0.00 0.00 0.00 54 1014.8
20260901065714 44 225 0.0 0.0 0.00 0.00 0.00 52 1014.8
20260901064714 42 225 0.0 1.0 0.00 0.00 0.00 49 1014.9
20260901061813 44 269 3.0 5.0 0.00 0.00 0.00 47 1015.0
20260901055815 42 266 1.0 4.0 0.00 0.00 0.00 47 1015.0
20260901052815 44 233 2.0 5.0 0.00 0.00 0.00 43 1015.4
20260901051914 45 289 0.0 2.0 0.00 0.00 0.00 43 1015.5
20260901051013 47 238 2.0 3.0 0.00 0.00 0.00 43 1015.5
20260901050016 46 255 3.0 4.0 0.00 0.00 0.00 45 1015.5
20260901045014 43 239 2.0 4.0 0.00 0.00 0.00 49 1015.5
20260901044014 48 202 0.0 0.0 0.00 0.00 0.00 47 1015.5
20260901043029 55 163 0.0 1.0 0.00 0.00 0.00 46 1015.5
20260901042115 56 159 1.0 2.0 0.00 0.00 0.00 45 1015.6
20260901040114 58 225 0.0 0.0 0.00 0.00 0.00 41 1015.6
20260901035114 58 180 1.0 2.0 0.00 0.00 0.00 41 1015.6
20260901034213 57 292 0.0 1.0 0.00 0.00 0.00 38 1015.7
20260901033215 61 315 1.0 2.0 0.00 0.00 0.00 97 1015.6
20260901032214 61 247 0.0 1.0 0.00 0.00 0.00 33 1015.4
20260901031216 60 180 0.0 0.0 0.00 0.00 0.00 32 1015.3
20260901030216 62 202 0.0 1.0 0.00 0.00 0.00 31 1015.3
20260901025216 61 254 2.0 3.0 0.00 0.00 0.00 35 1015.1
20260901024215 63 274 0.0 4.0 0.00 0.00 0.00 34 1014.9
20260901023213 65 214 2.0 4.0 0.00 0.00 0.00 32 1015.1
20260901022213 66 180 0.0 0.0 0.00 0.00 0.00 32 1014.9
20260901021312 64 180 0.0 1.0 0.00 0.00 0.00 29 1014.9
20260901020214 63 180 0.0 0.0 0.00 0.00 0.00 22 1014.9
20260901015214 66 180 0.0 0.0 0.00 0.00 0.00 26 1014.9
20260901014215 67 315 0.0 0.0 0.00 0.00 0.00 24 1014.9
20260901013216 69 315 0.0 0.0 0.00 0.00 0.00 22 1014.9
20260901012216 69 315 3.0 3.0 0.00 0.00 0.00 22 1014.8
20260901011214 71 315 1.0 2.0 0.00 0.00 0.00 20 1014.9
20260901010214 72 357 1.0 3.0 0.00 0.00 0.00 20 1015.1
20260901005214 73 190 0.0 2.0 0.00 0.00 0.00 20 1015.0
20260901004215 73 308 0.0 0.0 0.00 0.00 0.00 19 1015.1
20260901004113 73 266 0.0 1.0 0.00 0.00 0.00 19 1015.0
20260901003113 72 292 0.0 1.0 0.00 0.00 0.00 19 1015.2
20260901001114 70 293 4.0 7.0 0.00 0.00 0.00 21 1015.4
20260901001018 71 327 2.0 6.0 0.00 0.00 0.00 21 1015.5
20260901000114 71 329 6.0 9.0 0.00 0.00 0.00 20 1015.5
20260831235115 72 48 3.0 6.0 0.00 0.00 0.00 20 1015.6
20260831233113 71 302 3.0 8.0 0.00 0.00 0.00 19 1015.5
20260831233015 72 4 4.0 7.0 0.00 0.00 0.00 18 1015.6
20260831230016 81 105 4.0 6.0 0.00 0.00 0.00 17 1016.0
20260831225017 80 294 3.0 5.0 0.00 0.00 0.00 20 1016.1
20260831224914 80 109 4.0 6.0 0.00 0.00 0.00 20 1016.3
20260831223916 80 113 4.0 6.0 0.00 0.00 0.00 19 1016.3
20260831223014 80 98 1.0 5.0 0.00 0.00 0.00 19 1016.5
20260831222013 79 107 4.0 9.0 0.00 0.00 0.00 19 1016.5
20260831221915 79 129 5.0 8.0 0.00 0.00 0.00 20 1016.5
20260831221013 79 80 2.0 4.0 0.00 0.00 0.00 20 1016.8
20260831215013 79 76 3.0 7.0 0.00 0.00 0.00 19 1017.0
20260831214031 80 97 2.0 6.0 0.00 0.00 0.00 19 1017.1
20260831212114 81 82 4.0 7.0 0.00 0.00 0.00 18 1017.3
20260831211114 80 76 5.0 11.0 0.00 0.00 0.00 19 1017.3
20260831210115 77 74 4.0 9.0 0.00 0.00 0.00 20 1017.6
20260831210013 77 345 0.0 3.0 0.00 0.00 0.00 19 1017.6
20260831203015 80 104 8.0 11.0 0.00 0.00 0.00 36 1017.9
20260831202026 75 85 5.0 7.0 0.00 0.00 0.00 20 1017.9
20260831201028 76 105 3.0 5.0 0.00 0.00 0.00 21 1018.2
20260831195126 72 102 2.0 3.0 0.00 0.00 0.00 23 1018.6
20260831194129 72 119 0.0 3.0 0.00 0.00 0.00 24 1018.6
20260831192228 70 65 5.0 10.0 0.00 0.00 0.00 24 1019.1
20260831191228 64 96 7.0 9.0 0.00 0.00 0.00 91 1019.1
20260831190327 67 95 3.0 7.0 0.00 0.00 0.00 70 1019.2
20260831185328 63 116 2.0 4.0 0.00 0.00 0.00 26 1019.5
20260831185227 64 86 4.0 7.0 0.00 0.00 0.00 26 1019.5
20260831184228 69 111 4.0 5.0 0.00 0.00 0.00 28 1019.8
20260831183327 68 101 5.0 7.0 0.00 0.00 0.00 29 1019.9
20260831182329 67 89 5.0 8.0 0.00 0.00 0.00 32 1020.0